Location: Cutler
(25.6150°N, 80.3110°W)
Time: 20:48:02
(UTC-05:00)

Tiangong 2 - Visible Passes

Search period start: 24 November 2017 00:00
Search period end: 04 December 2017 00:00
Orbit: 386 x 392 km, 42.8° (Epoch: 24 November)

Date Brightness Start Highest point End Pass type
(mag) Time Alt. Az. Time Alt. Az. Time Alt. Az.
24 Nov 4.4 05:02:27 10° SSE 05:03:25 11° SE 05:04:23 10° ESE visible
25 Nov 1.4 05:38:59 13° SW 05:41:46 64° SE 05:44:56 10° ENE visible
26 Nov 3.8 04:44:54 20° E 04:44:54 20° E 04:46:23 10° ENE visible
26 Nov 2.4 06:17:47 10° W 06:20:26 24° NNW 06:23:05 10° NNE visible
27 Nov 1.9 05:22:50 38° N 05:22:50 38° N 05:25:13 10° NE visible
28 Nov 3.2 06:00:26 13° NW 06:00:58 13° NNW 06:02:35 10° N visible
